Meridian, MS

10:55 PM CDT on August 30, 2016 (GMT -0500)
Key

Weather History for KMEI - October, 2011

Change the Weather History Date:

Friday, October 14, 2011

  Actual Average Record
Temperature  
Mean Temperature 64 °F 65 °F  
Max Temperature 81 °F 78 °F 91 °F (1953)
Min Temperature 47 °F 52 °F 34 °F (1988)
Degree Days  
Heating Degree Days 1 3  
Month to date heating degree days 24 28  
Since 1 July heating degree days 24 35  
Cooling Degree Days 0 3  
Month to date cooling degree days 25 58  
Year to date cooling degree days 2209 1981  
Growing Degree Days 14 (Base 50)    
Moisture  
Dew Point 51 °F    
Average Humidity 65    
Maximum Humidity 100    
Minimum Humidity 30    
Precipitation  
Precipitation 0.00 in 0.12 in 0.56 in (1995)
Month to date precipitation 0.33 1.62  
Year to date precipitation 43.36 44.01  
Sea Level Pressure  
Sea Level Pressure 29.94 in    
Wind  
Wind Speed 2 mph (SSW)    
Max Wind Speed 9 mph    
Max Gust Speed 14 mph    
Visibility 8 miles    
Events      
T = Trace of Precipitation, MM = Missing Value Source: NWS Daily Summary

Daily Weather History Graph

Daily Weather History Graph

Search for Another Location

Airport or City:

Trip Planner

Search our weather history database for the weather conditions in past years. The results will help you decide how hot, cold, wet, or windy it might be!

Date:

Astronomy

Oct. 14, 2011 Rise Set
Actual Time 6:57 AM CDT 6:23 PM CDT
Civil Twilight 6:33 AM CDT 6:48 PM CDT
Nautical Twilight 6:04 AM CDT 7:16 PM CDT
Astronomical Twilight 5:36 AM CDT 7:45 PM CDT
Moon 7:49 PM CDT (10/14) 9:14 AM CDT (10/14)
Length of Visible Light 12h 15m
Length of Day
11h 25m
Waning Gibbous, 94% of the Moon is Illuminated
Oct 14
Waning Gibbous
Oct 19
Last Quarter
Oct 26
New
Nov 2
First Quarter
Nov 10
Full

Hourly Weather History & Observations

Time (CDT) Temp. Dew Point Humidity Pressure Visibility Wind Dir Wind Speed Gust Speed Precip Events Conditions
12:58 AM 53.1 °F 53.1 °F 100% 29.87 in 10.0 mi South 3.5 mph - N/A   Clear
1:58 AM 53.1 °F 52.0 °F 96% 29.89 in 9.0 mi Calm Calm - N/A   Clear
2:54 AM 50.0 °F 50.0 °F 100% 29.90 in 2.5 mi Calm Calm - N/A   Clear
2:58 AM 50.0 °F 50.0 °F 100% 29.89 in 5.0 mi Calm Calm - N/A   Clear
3:12 AM 50.0 °F 48.2 °F 94% 29.90 in 1.5 mi Calm Calm - N/A   Clear
3:28 AM 50.0 °F 50.0 °F 100% 29.90 in 3.0 mi SSW 3.5 mph - N/A   Clear
3:34 AM 50.0 °F 48.2 °F 94% 29.90 in 1.8 mi SSW 3.5 mph - N/A   Clear
3:43 AM 50.0 °F 50.0 °F 100% 29.90 in 4.0 mi Calm Calm - N/A   Clear
3:58 AM 48.9 °F 48.0 °F 97% 29.90 in 2.0 mi Calm Calm - N/A   Clear
4:07 AM 50.0 °F 48.2 °F 94% 29.90 in 1.0 mi Calm Calm - N/A   Clear
4:15 AM 50.0 °F 48.2 °F 94% 29.90 in 4.0 mi Calm Calm - N/A   Clear
4:58 AM 48.0 °F 46.9 °F 96% 29.91 in 7.0 mi Calm Calm - N/A   Clear
5:58 AM 48.0 °F 46.9 °F 96% 29.93 in 10.0 mi Calm Calm - N/A   Clear
6:58 AM 48.0 °F 46.9 °F 96% 29.95 in 6.0 mi SSW 3.5 mph - N/A   Clear
7:58 AM 51.1 °F 50.0 °F 96% 29.97 in 10.0 mi Calm Calm - N/A   Clear
8:58 AM 57.0 °F 55.0 °F 93% 29.99 in 10.0 mi South 3.5 mph - N/A   Clear
9:58 AM 66.0 °F 57.0 °F 73% 29.99 in 10.0 mi Calm Calm - N/A   Clear
10:58 AM 72.0 °F 52.0 °F 49% 30.00 in 10.0 mi NNE 3.5 mph - N/A   Clear
11:58 AM 75.9 °F 50.0 °F 40% 29.99 in 10.0 mi Variable 4.6 mph - N/A   Clear
12:58 PM 77.0 °F 44.1 °F 31% 29.97 in 10.0 mi North 5.8 mph - N/A   Clear
1:58 PM 80.1 °F 46.0 °F 30% 29.95 in 10.0 mi NNE 6.9 mph - N/A   Clear
2:58 PM 81.0 °F 46.0 °F 29% 29.93 in 10.0 mi Variable 3.5 mph - N/A   Clear
3:58 PM 80.1 °F 46.9 °F 31% 29.94 in 10.0 mi Variable 3.5 mph - N/A   Clear
4:58 PM 80.1 °F 46.9 °F 31% 29.94 in 10.0 mi Calm Calm - N/A   Clear
5:58 PM 71.1 °F 57.9 °F 63% 29.95 in 10.0 mi Calm Calm - N/A   Clear
6:58 PM 63.0 °F 59.0 °F 87% 29.97 in 10.0 mi Calm Calm - N/A   Clear
7:58 PM 59.0 °F 57.0 °F 93% 29.99 in 10.0 mi South 3.5 mph - N/A   Clear
8:58 PM 57.0 °F 55.9 °F 96% 30.00 in 10.0 mi SSW 3.5 mph - N/A   Clear
9:58 PM 54.0 °F 53.1 °F 97% 30.01 in 10.0 mi Calm Calm - N/A   Clear
10:58 PM 54.0 °F 52.0 °F 93% 30.03 in 10.0 mi Calm Calm - N/A   Clear
11:58 PM 52.0 °F 51.1 °F 97% 30.03 in 10.0 mi Calm Calm - N/A   Clear